When you browse on this site, cookies collect data to enhance your experience and personalize the content and advertising you see.
Visit our Privacy Policy to learn more. By continuing to use the site, you agree to this use of cookies and data.
  • In Schweiz
  • Länderverzeichnis
  • Für 7 Tage
  • Wassertemperatur
  • Satellitenkarten
  • Wetterkarte
  • Widgets
  • user-avatar
    Anmelden

    Stündliche Wetter Gloucester

    Heute, 19 Januar, Samstag

    Zeit Temperatur Niederschläge Wind Luftdruck Luftfeuchtigkeit
    00:00 +2°C° 0 mm 7 m/S 750 mmHg 91%
    01:00 +2°C° 0.1 mm 6 m/S 750 mmHg 91%
    02:00 +2°C° 0.1 mm 6 m/S 749 mmHg 92%
    03:00 +2°C° 0.1 mm 6 m/S 749 mmHg 93%
    04:00 +2°C° 0 mm 6 m/S 749 mmHg 93%
    05:00 +2°C° 0 mm 6 m/S 749 mmHg 94%
    06:00 +2°C° 0 mm 5 m/S 748 mmHg 94%
    07:00 +3°C° 0 mm 5 m/S 748 mmHg 94%
    08:00 +3°C° 0 mm 5 m/S 748 mmHg 94%
    09:00 +3°C° 0 mm 5 m/S 748 mmHg 95%
    10:00 +3°C° 0.5 mm 5 m/S 748 mmHg 94%
    11:00 +5°C° 0.5 mm 5 m/S 748 mmHg 94%
    12:00 +5°C° 0.5 mm 5 m/S 748 mmHg 93%
    13:00 +5°C° 0.5 mm 5 m/S 748 mmHg 93%
    14:00 +5°C° 0.5 mm 5 m/S 748 mmHg 93%
    15:00 +5°C° 0.5 mm 5 m/S 748 mmHg 93%
    16:00 +4°C° 0.1 mm 4 m/S 748 mmHg 93%
    17:00 +4°C° 0.1 mm 4 m/S 748 mmHg 93%
    18:00 +4°C° 0.1 mm 4 m/S 749 mmHg 94%
    19:00 +4°C° 0.1 mm 3 m/S 749 mmHg 94%
    20:00 +3°C° 0.1 mm 3 m/S 749 mmHg 95%
    21:00 +3°C° 0.1 mm 3 m/S 750 mmHg 95%
    22:00 +3°C° 0.1 mm 3 m/S 750 mmHg 95%
    23:00 +4°C° 0.1 mm 2 m/S 751 mmHg 95%

    Morgen, 20 Januar, Sonntag

    Zeit Temperatur Niederschläge Wind Luftdruck Luftfeuchtigkeit
    00:00 +4°C° 0.1 mm 2 m/S 751 mmHg 95%
    01:00 +4°C° 0.1 mm 2 m/S 751 mmHg 95%
    02:00 +4°C° 0.1 mm 2 m/S 752 mmHg 95%
    03:00 +4°C° 0.1 mm 2 m/S 752 mmHg 95%
    04:00 +3°C° 0 mm 2 m/S 753 mmHg 95%
    05:00 +3°C° 0 mm 2 m/S 753 mmHg 95%
    06:00 +3°C° 0 mm 1 m/S 753 mmHg 95%
    07:00 +3°C° 0 mm 1 m/S 754 mmHg 95%
    08:00 +3°C° 0 mm 1 m/S 755 mmHg 95%
    09:00 +2°C° 0 mm 1 m/S 756 mmHg 95%
    10:00 +3°C° 0 mm 1 m/S 756 mmHg 91%
    11:00 +3°C° 0 mm 2 m/S 757 mmHg 88%
    12:00 +5°C° 0 mm 2 m/S 757 mmHg 84%
    13:00 +5°C° 0 mm 2 m/S 758 mmHg 84%
    14:00 +5°C° 0 mm 2 m/S 758 mmHg 84%
    15:00 +5°C° 0 mm 2 m/S 758 mmHg 85%
    16:00 +4°C° 0 mm 2 m/S 759 mmHg 88%
    17:00 +3°C° 0 mm 2 m/S 759 mmHg 91%
    18:00 +3°C° 0 mm 1 m/S 760 mmHg 94%
    19:00 +3°C° 0 mm 1 m/S 760 mmHg 93%
    20:00 +3°C° 0 mm 1 m/S 761 mmHg 93%
    21:00 +2°C° 0 mm 1 m/S 761 mmHg 93%
    22:00 +2°C° 0 mm 1 m/S 762 mmHg 93%
    23:00 +2°C° 0 mm 1 m/S 762 mmHg 93%

    übermorgen, 21 Januar, Montag

    Zeit Temperatur Niederschläge Wind Luftdruck Luftfeuchtigkeit
    00:00 +2°C° 0 mm 1 m/S 762 mmHg 93%
    01:00 +2°C° 0 mm 1 m/S 762 mmHg 94%
    02:00 +2°C° 0 mm 1 m/S 762 mmHg 94%
    03:00 +3°C° 0 mm 1 m/S 762 mmHg 95%
    04:00 +1°C° 0 mm 0 m/S 762 mmHg 95%
    05:00 +1°C° 0 mm 0 m/S 762 mmHg 96%
    06:00 +1°C° 0 mm 0 m/S 762 mmHg 96%
    07:00 +1°C° 0 mm 0 m/S 762 mmHg 96%
    08:00 +3°C° 0 mm 1 m/S 762 mmHg 96%
    09:00 +3°C° 0 mm 1 m/S 762 mmHg 96%
    10:00 +3°C° 0 mm 2 m/S 761 mmHg 93%
    11:00 +4°C° 0 mm 2 m/S 761 mmHg 91%
    12:00 +4°C° 0 mm 3 m/S 760 mmHg 88%
    13:00 +4°C° 0 mm 3 m/S 759 mmHg 87%
    14:00 +4°C° 0 mm 4 m/S 758 mmHg 86%
    15:00 +3°C° 0 mm 5 m/S 757 mmHg 84%
    16:00 +3°C° 0 mm 5 m/S 756 mmHg 85%
    17:00 +3°C° 0 mm 5 m/S 755 mmHg 86%
    18:00 +2°C° 0 mm 5 m/S 754 mmHg 87%
    19:00 +2°C° 0.1 mm 5 m/S 752 mmHg 87%
    20:00 +3°C° 0.1 mm 6 m/S 751 mmHg 87%
    21:00 +3°C° 0.1 mm 6 m/S 749 mmHg 87%
    22:00 +3°C° 1 mm 7 m/S 748 mmHg 87%
    23:00 +2°C° 1 mm 8 m/S 747 mmHg 87%

    22 Januar, Dienstag

    Zeit Temperatur Niederschläge Wind Luftdruck Luftfeuchtigkeit
    00:00 +2°C° 1 mm 9 m/S 746 mmHg 87%
    01:00 0°C° 0.1 mm 8 m/S 746 mmHg 85%
    02:00 -1°C° 0.1 mm 7 m/S 746 mmHg 83%
    03:00 -1°C° 0.1 mm 5 m/S 745 mmHg 81%
    04:00 -1°C° 0 mm 5 m/S 745 mmHg 81%
    05:00 -1°C° 0 mm 5 m/S 745 mmHg 81%
    06:00 -2°C° 0 mm 5 m/S 745 mmHg 81%
    07:00 -2°C° 0 mm 4 m/S 745 mmHg 81%
    08:00 -2°C° 0 mm 4 m/S 745 mmHg 82%
    09:00 -1°C° 0 mm 3 m/S 744 mmHg 82%
    10:00 -1°C° 0.1 mm 4 m/S 744 mmHg 77%
    11:00 0°C° 0.1 mm 5 m/S 744 mmHg 72%
    12:00 +1°C° 0.1 mm 6 m/S 744 mmHg 66%
    13:00 +1°C° 0.1 mm 6 m/S 744 mmHg 67%
    14:00 +1°C° 0.1 mm 6 m/S 744 mmHg 68%
    15:00 +1°C° 0.1 mm 6 m/S 744 mmHg 69%
    16:00 0°C° 0.3 mm 5 m/S 744 mmHg 73%
    17:00 0°C° 0.3 mm 5 m/S 744 mmHg 78%
    18:00 -1°C° 0.3 mm 5 m/S 745 mmHg 82%
    19:00 -2°C° 0 mm 5 m/S 745 mmHg 83%
    20:00 -2°C° 0 mm 4 m/S 745 mmHg 83%
    21:00 -2°C° 0 mm 3 m/S 745 mmHg 84%
    22:00 -2°C° 0 mm 3 m/S 745 mmHg 85%
    23:00 -2°C° 0 mm 3 m/S 745 mmHg 85%

    23 Januar, Mittwoch

    Zeit Temperatur Niederschläge Wind Luftdruck Luftfeuchtigkeit
    00:00 -2°C° 0 mm 3 m/S 745 mmHg 86%
    01:00 -2°C° 0 mm 3 m/S 745 mmHg 87%
    02:00 -2°C° 0 mm 3 m/S 746 mmHg 88%
    03:00 -2°C° 0 mm 3 m/S 746 mmHg 89%
    04:00 -2°C° 0 mm 3 m/S 746 mmHg 89%
    05:00 -2°C° 0 mm 3 m/S 746 mmHg 88%
    06:00 -2°C° 0 mm 3 m/S 746 mmHg 88%
    07:00 -2°C° 0 mm 3 m/S 746 mmHg 87%
    08:00 -1°C° 0 mm 3 m/S 746 mmHg 86%
    09:00 -1°C° 0 mm 3 m/S 747 mmHg 86%
    10:00 0°C° 0.4 mm 4 m/S 746 mmHg 84%
    11:00 +1°C° 0.4 mm 5 m/S 746 mmHg 82%
    12:00 +2°C° 0.4 mm 6 m/S 746 mmHg 80%
    13:00 +2°C° 0.6 mm 5 m/S 746 mmHg 83%
    14:00 +2°C° 0.6 mm 5 m/S 745 mmHg 85%
    15:00 +3°C° 0.6 mm 4 m/S 745 mmHg 87%
    16:00 +1°C° 0.1 mm 4 m/S 746 mmHg 89%
    17:00 +1°C° 0.1 mm 3 m/S 746 mmHg 91%
    18:00 +1°C° 0.1 mm 3 m/S 746 mmHg 92%
    19:00 0°C° 0 mm 3 m/S 747 mmHg 93%
    20:00 -1°C° 0 mm 4 m/S 748 mmHg 94%
    21:00 -2°C° 0 mm 4 m/S 749 mmHg 95%
    22:00 -1°C° 0 mm 5 m/S 750 mmHg 94%
    23:00 -1°C° 0 mm 5 m/S 751 mmHg 93%

    24 Januar, Donnerstag

    Zeit Temperatur Niederschläge Wind Luftdruck Luftfeuchtigkeit
    00:00 0°C° 0 mm 5 m/S 752 mmHg 91%
    01:00 -1°C° 0 mm 5 m/S 753 mmHg 91%
    02:00 -2°C° 0 mm 4 m/S 754 mmHg 91%
    03:00 -2°C° 0 mm 3 m/S 755 mmHg 92%
    04:00 -4°C° 0 mm 3 m/S 756 mmHg 92%
    05:00 -4°C° 0 mm 3 m/S 756 mmHg 92%
    06:00 -4°C° 0 mm 3 m/S 757 mmHg 92%
    07:00 -4°C° 0 mm 3 m/S 758 mmHg 92%
    08:00 -4°C° 0 mm 3 m/S 758 mmHg 93%
    09:00 -2°C° 0 mm 2 m/S 759 mmHg 93%
    10:00 -1°C° 0 mm 2 m/S 759 mmHg 91%
    11:00 0°C° 0 mm 3 m/S 759 mmHg 89%
    12:00 +1°C° 0 mm 3 m/S 760 mmHg 87%
    13:00 +1°C° 0 mm 3 m/S 760 mmHg 87%
    14:00 +3°C° 0 mm 2 m/S 760 mmHg 86%
    15:00 +3°C° 0 mm 2 m/S 759 mmHg 86%
    16:00 +2°C° 0 mm 2 m/S 760 mmHg 88%
    17:00 +1°C° 0 mm 2 m/S 760 mmHg 89%
    18:00 -2°C° 0 mm 2 m/S 760 mmHg 91%
    19:00 -2°C° 0 mm 2 m/S 760 mmHg 91%
    20:00 -2°C° 0 mm 2 m/S 760 mmHg 91%
    21:00 -2°C° 0 mm 2 m/S 761 mmHg 91%
    22:00 -2°C° 0 mm 2 m/S 761 mmHg 91%
    23:00 -2°C° 0 mm 2 m/S 760 mmHg 91%
    Mehr zeigen